User: anonymous   Login
Location: Unspecified
(43.4680°N, 87.1740°E)
Time: 04:17:54
(UTC+00:00)
Language:

Timation 2 Rocket - Orbit

View from above orbital plane
View from above orbital plane
View from above satellite
View from above satellite

Ground track
Ground track

The orbit data is extracted from the following two-line orbital elements,

1 04159U 69082AB  21169.25111841 -.00000021  00000-0  29829-4 0  9994
2 04159  69.9626  26.4481 0113373  70.2840 291.0441 13.72464050588210
Epoch (UTC): 18 June 2021 06:01:36
Eccentricity: 0.0113373
inclination: 69.9626°
perigee height: 907 km
apogee height: 1074 km
right ascension of ascending node: 26.4481°
argument of perigee: 70.2840°
revolutions per day: 13.72464050
mean anomaly at epoch: 291.0441°
orbit number at epoch: 58821

The dashed part of the orbit path shows where the satellite is in the earth's shadow,  

DLR